• In Hungary
  • List of Countries
  • For 7 days
  • Water Temperature
  • Satellite Maps
  • Weather Map
  • News
  • Weather Widgets
  • user-avatar
    Login

    Hourly Weather Santa Cruz del Quiché

    Today, 18 June, Monday

    Time Temperature Precipitation Wind Pressure Humidity
    00:00 +14°C° 0.5 mm 1 mps 600 mmHg 93%
    01:00 +14°C° 0.1 mm 1 mps 600 mmHg 93%
    02:00 +14°C° 0.1 mm 1 mps 599 mmHg 92%
    03:00 +14°C° 0.1 mm 1 mps 599 mmHg 92%
    04:00 +14°C° 0.1 mm 1 mps 599 mmHg 91%
    05:00 +14°C° 0.1 mm 1 mps 599 mmHg 91%
    06:00 +14°C° 0.1 mm 1 mps 599 mmHg 90%
    07:00 +16°C° 0.1 mm 1 mps 600 mmHg 82%
    08:00 +20°C° 0.1 mm 1 mps 601 mmHg 74%
    09:00 +20°C° 0.1 mm 0 mps 603 mmHg 66%
    10:00 +23°C° 0.5 mm 1 mps 603 mmHg 65%
    11:00 +24°C° 0.5 mm 1 mps 603 mmHg 64%
    12:00 +24°C° 0.5 mm 2 mps 603 mmHg 62%
    13:00 +24°C° 2.4 mm 1 mps 602 mmHg 67%
    14:00 +23°C° 2.4 mm 1 mps 602 mmHg 72%
    15:00 +22°C° 2.4 mm 1 mps 601 mmHg 76%
    16:00 +21°C° 3 mm 1 mps 601 mmHg 81%
    17:00 +20°C° 3 mm 1 mps 600 mmHg 86%
    18:00 +17°C° 3 mm 0 mps 600 mmHg 91%
    19:00 +18°C° 2 mm 1 mps 600 mmHg 92%
    20:00 +16°C° 2 mm 1 mps 600 mmHg 93%
    21:00 +16°C° 2 mm 1 mps 600 mmHg 93%
    22:00 +15°C° 1.4 mm 1 mps 600 mmHg 93%
    23:00 +15°C° 1.4 mm 1 mps 600 mmHg 93%

    Tomorrow, 19 June, Tuesday

    Time Temperature Precipitation Wind Pressure Humidity
    00:00 +15°C° 1.4 mm 1 mps 600 mmHg 93%
    01:00 +15°C° 0.5 mm 1 mps 599 mmHg 92%
    02:00 +14°C° 0.5 mm 1 mps 599 mmHg 91%
    03:00 +14°C° 0.5 mm 1 mps 598 mmHg 90%
    04:00 +14°C° 0.1 mm 1 mps 598 mmHg 90%
    05:00 +14°C° 0.1 mm 1 mps 598 mmHg 90%
    06:00 +14°C° 0.1 mm 1 mps 598 mmHg 89%
    07:00 +16°C° 0.1 mm 1 mps 600 mmHg 81%
    08:00 +18°C° 0.1 mm 0 mps 601 mmHg 74%
    09:00 +20°C° 0.1 mm 0 mps 602 mmHg 66%
    10:00 +23°C° 0.2 mm 1 mps 602 mmHg 62%
    11:00 +25°C° 0.2 mm 1 mps 602 mmHg 58%
    12:00 +26°C° 0.2 mm 1 mps 603 mmHg 55%
    13:00 +25°C° 1.2 mm 1 mps 602 mmHg 60%
    14:00 +24°C° 1.2 mm 1 mps 601 mmHg 65%
    15:00 +23°C° 1.2 mm 1 mps 600 mmHg 70%
    16:00 +22°C° 2.2 mm 1 mps 600 mmHg 76%
    17:00 +20°C° 2.2 mm 1 mps 599 mmHg 82%
    18:00 +19°C° 2.2 mm 1 mps 599 mmHg 88%
    19:00 +18°C° 2 mm 1 mps 599 mmHg 89%
    20:00 +16°C° 2 mm 1 mps 599 mmHg 91%
    21:00 +16°C° 2 mm 1 mps 600 mmHg 92%
    22:00 +15°C° 0.9 mm 1 mps 599 mmHg 92%
    23:00 +15°C° 0.9 mm 1 mps 599 mmHg 91%

    Day after tomorrow, 20 June, Wednesday

    Time Temperature Precipitation Wind Pressure Humidity
    00:00 +15°C° 0.9 mm 1 mps 599 mmHg 91%
    01:00 +14°C° 0.2 mm 1 mps 599 mmHg 91%
    02:00 +14°C° 0.2 mm 1 mps 598 mmHg 91%
    03:00 +14°C° 0.2 mm 1 mps 598 mmHg 90%
    04:00 +14°C° 0.1 mm 1 mps 598 mmHg 90%
    05:00 +14°C° 0.1 mm 1 mps 598 mmHg 90%
    06:00 +14°C° 0.1 mm 1 mps 598 mmHg 90%
    07:00 +16°C° 0 mm 1 mps 599 mmHg 81%
    08:00 +20°C° 0 mm 1 mps 600 mmHg 72%
    09:00 +20°C° 0 mm 0 mps 602 mmHg 63%
    10:00 +23°C° 0 mm 1 mps 602 mmHg 60%
    11:00 +24°C° 0 mm 1 mps 602 mmHg 58%
    12:00 +25°C° 0 mm 1 mps 602 mmHg 55%
    13:00 +25°C° 0.8 mm 1 mps 601 mmHg 60%
    14:00 +24°C° 0.8 mm 1 mps 601 mmHg 64%
    15:00 +23°C° 0.8 mm 1 mps 600 mmHg 68%
    16:00 +22°C° 2 mm 1 mps 600 mmHg 75%
    17:00 +20°C° 2 mm 1 mps 599 mmHg 82%
    18:00 +19°C° 2 mm 1 mps 599 mmHg 88%
    19:00 +18°C° 1.8 mm 1 mps 599 mmHg 89%
    20:00 +16°C° 1.8 mm 1 mps 599 mmHg 91%
    21:00 +16°C° 1.8 mm 1 mps 599 mmHg 92%
    22:00 +15°C° 0.8 mm 1 mps 599 mmHg 92%
    23:00 +15°C° 0.8 mm 1 mps 599 mmHg 92%

    21 June, Thursday

    Time Temperature Precipitation Wind Pressure Humidity
    00:00 +15°C° 0.8 mm 1 mps 599 mmHg 92%
    01:00 +14°C° 0.3 mm 1 mps 599 mmHg 91%
    02:00 +14°C° 0.3 mm 1 mps 598 mmHg 91%
    03:00 +14°C° 0.3 mm 1 mps 598 mmHg 91%
    04:00 +14°C° 0.2 mm 1 mps 598 mmHg 91%
    05:00 +14°C° 0.2 mm 1 mps 598 mmHg 90%
    06:00 +14°C° 0.2 mm 1 mps 598 mmHg 90%
    07:00 +16°C° 0.2 mm 1 mps 599 mmHg 85%
    08:00 +16°C° 0.2 mm 0 mps 600 mmHg 81%
    09:00 +18°C° 0.2 mm 0 mps 601 mmHg 76%
    10:00 +19°C° 0.5 mm 0 mps 602 mmHg 74%
    11:00 +21°C° 0.5 mm 1 mps 602 mmHg 71%
    12:00 +22°C° 0.5 mm 1 mps 602 mmHg 69%
    13:00 +22°C° 1.2 mm 1 mps 601 mmHg 71%
    14:00 +21°C° 1.2 mm 1 mps 600 mmHg 73%
    15:00 +21°C° 1.2 mm 1 mps 600 mmHg 75%
    16:00 +20°C° 1.4 mm 1 mps 599 mmHg 80%
    17:00 +19°C° 1.4 mm 1 mps 599 mmHg 85%
    18:00 +18°C° 1.4 mm 1 mps 599 mmHg 90%
    19:00 +16°C° 1.4 mm 1 mps 599 mmHg 91%
    20:00 +15°C° 1.4 mm 1 mps 599 mmHg 92%
    21:00 +15°C° 1.4 mm 1 mps 599 mmHg 93%
    22:00 +14°C° 1 mm 1 mps 599 mmHg 92%
    23:00 +14°C° 1 mm 1 mps 599 mmHg 92%

    22 June, Friday

    Time Temperature Precipitation Wind Pressure Humidity
    00:00 +14°C° 1 mm 1 mps 599 mmHg 92%
    01:00 +14°C° 0.9 mm 1 mps 599 mmHg 91%
    02:00 +13°C° 0.9 mm 1 mps 599 mmHg 90%
    03:00 +13°C° 0.9 mm 1 mps 598 mmHg 90%
    04:00 +13°C° 0.6 mm 1 mps 598 mmHg 89%
    05:00 +13°C° 0.6 mm 1 mps 598 mmHg 88%
    06:00 +13°C° 0.6 mm 1 mps 599 mmHg 87%
    07:00 +15°C° 0.5 mm 1 mps 599 mmHg 84%
    08:00 +15°C° 0.5 mm 0 mps 600 mmHg 80%
    09:00 +16°C° 0.5 mm 0 mps 601 mmHg 77%
    10:00 +17°C° 0.3 mm 0 mps 601 mmHg 73%
    11:00 +21°C° 0.3 mm 1 mps 602 mmHg 70%
    12:00 +22°C° 0.3 mm 1 mps 602 mmHg 67%
    13:00 +21°C° 0.9 mm 1 mps 601 mmHg 71%
    14:00 +21°C° 0.9 mm 1 mps 601 mmHg 75%
    15:00 +20°C° 0.9 mm 1 mps 600 mmHg 79%
    16:00 +19°C° 1.6 mm 1 mps 600 mmHg 83%
    17:00 +18°C° 1.6 mm 1 mps 599 mmHg 88%
    18:00 +16°C° 1.6 mm 1 mps 599 mmHg 92%
    19:00 +16°C° 2 mm 1 mps 599 mmHg 93%
    20:00 +15°C° 2 mm 0 mps 600 mmHg 93%
    21:00 +14°C° 2 mm 0 mps 600 mmHg 94%
    22:00 +14°C° 2.1 mm 0 mps 600 mmHg 94%
    23:00 +14°C° 2.1 mm 0 mps 600 mmHg 94%

    23 June, Saturday

    Time Temperature Precipitation Wind Pressure Humidity
    00:00 +14°C° 2.1 mm 0 mps 599 mmHg 94%
    01:00 +13°C° 0.7 mm 0 mps 599 mmHg 94%
    02:00 +13°C° 0.7 mm 0 mps 599 mmHg 94%
    03:00 +13°C° 0.7 mm 0 mps 598 mmHg 94%
    04:00 +13°C° 0.2 mm 0 mps 598 mmHg 94%
    05:00 +13°C° 0.2 mm 0 mps 598 mmHg 94%
    06:00 +12°C° 0.2 mm 0 mps 599 mmHg 93%
    07:00 +14°C° 0.1 mm 0 mps 600 mmHg 87%
    08:00 +16°C° 0.1 mm 0 mps 601 mmHg 81%
    09:00 +18°C° 0.1 mm 0 mps 602 mmHg 75%
    10:00 +21°C° 0.4 mm 1 mps 602 mmHg 72%
    11:00 +22°C° 0.4 mm 1 mps 602 mmHg 69%
    12:00 +23°C° 0.4 mm 1 mps 602 mmHg 66%
    13:00 +22°C° 1.3 mm 1 mps 601 mmHg 69%
    14:00 +22°C° 1.3 mm 1 mps 600 mmHg 73%
    15:00 +21°C° 1.3 mm 1 mps 599 mmHg 76%
    16:00 +20°C° 1.9 mm 1 mps 599 mmHg 81%
    17:00 +19°C° 1.9 mm 1 mps 599 mmHg 86%
    18:00 +16°C° 1.9 mm 0 mps 599 mmHg 91%
    19:00 +16°C° 2.4 mm 0 mps 599 mmHg 92%
    20:00 +15°C° 2.4 mm 0 mps 599 mmHg 94%
    21:00 +15°C° 2.4 mm 0 mps 599 mmHg 95%
    22:00 +14°C° 1.7 mm 0 mps 599 mmHg 95%
    23:00 +14°C° 1.7 mm 0 mps 599 mmHg 95%
    Show more